Weather History for Pendleton, OR

Change the Weather History Date:

Friday, March 29, 2013

  Actual Average Record
Temperature  
Mean Temperature 55 °F 48 °F  
Max Temperature 65 °F 59 °F 80 °F (2004)
Min Temperature 44 °F 37 °F 18 °F (1954)
Degree Days  
Heating Degree Days 10 17  
Month to date heating degree days 570 583  
Since 1 July heating degree days 4303 4482  
Cooling Degree Days 0 0  
Month to date cooling degree days 0 0  
Year to date cooling degree days 0 0  
Growing Degree Days 5 (Base 50)    
Moisture  
Dew Point 43 °F    
Average Humidity 68    
Maximum Humidity 93    
Minimum Humidity 43    
Precipitation  
Precipitation 0.00 in 0.04 in 1.00 in (1904)
Month to date precipitation 0.53 1.25  
Year to date precipitation 1.90 3.79  
Snow  
Snow 0.00 in 0.00 in 1.50 in (1988)
Month to date snowfall 0.1 0.7  
Year to date snowfall 0.2 7.7  
Since 1 July snowfall 2.0 15.2  
Snow Depth 0.00 in    
Sea Level Pressure  
Sea Level Pressure 30.15 in    
Wind  
Wind Speed 6 mph (SSE)    
Max Wind Speed 13 mph    
Max Gust Speed 16 mph    
Visibility 10 miles    
Events      
T = Trace of Precipitation, MM = Missing Value Source: NWS Daily Summary

Daily Weather History Graph

Daily Weather History Graph

Search for Another Location

Airport:

Trip Planner

Search our weather history database for the weather conditions in past years. The results will help you decide how hot, cold, wet, or windy it might be!

Date:

Astronomy

Mar. 29, 2013 Rise Set
Actual Time 6:40 AM PDT 7:20 PM PDT
Civil Twilight 6:10 AM PDT 7:50 PM PDT
Nautical Twilight 5:35 AM PDT 8:25 PM PDT
Astronomical Twilight 4:58 AM PDT 9:02 PM PDT
Moon 10:36 PM PDT (3/29) 7:43 AM PDT (3/29)
Length of Visible Light 13h 39m
Length of Day
12h 39m
Waning Gibbous, 93% of the Moon is Illuminated
Mar 29
Waning Gibbous
Apr 2
Last Quarter
Apr 10
New
Apr 18
First Quarter
Apr 25
Full

Hourly Weather History & Observations

Time (PDT) Temp. Windchill Dew Point Humidity Pressure Visibility Wind Dir Wind Speed Gust Speed Precip Events Conditions
12:53 AM 48.0 °F - 45.0 °F 89% 30.08 in 10.0 mi SE 6.9 mph - N/A   Partly Cloudy
1:53 AM 48.0 °F - 45.0 °F 89% 30.09 in 10.0 mi SE 6.9 mph - N/A   Partly Cloudy
2:53 AM 48.0 °F - 45.0 °F 89% 30.10 in 10.0 mi SE 5.8 mph - N/A   Scattered Clouds
3:53 AM 48.9 °F - 45.0 °F 86% 30.11 in 10.0 mi SSE 3.5 mph - N/A   Overcast
4:53 AM 46.9 °F - 45.0 °F 93% 30.12 in 10.0 mi SE 4.6 mph - N/A   Overcast
5:53 AM 46.9 °F - 44.1 °F 90% 30.14 in 10.0 mi SSE 4.6 mph - N/A   Overcast
6:53 AM 48.0 °F - 45.0 °F 89% 30.15 in 10.0 mi SSE 4.6 mph - N/A   Overcast
7:53 AM 48.9 °F - 46.0 °F 90% 30.17 in 10.0 mi South 4.6 mph - N/A   Overcast
8:53 AM 52.0 °F - 44.1 °F 74% 30.18 in 10.0 mi SW 3.5 mph - N/A   Overcast
9:53 AM 54.0 °F - 43.0 °F 66% 30.19 in 10.0 mi WSW 8.1 mph - N/A   Overcast
10:53 AM 55.9 °F - 43.0 °F 62% 30.19 in 10.0 mi WSW 6.9 mph - N/A   Mostly Cloudy
11:53 AM 59.0 °F - 43.0 °F 55% 30.19 in 10.0 mi WSW 5.8 mph - N/A   Mostly Cloudy
12:53 PM 61.0 °F - 39.9 °F 46% 30.17 in 10.0 mi North - - N/A   Partly Cloudy
1:53 PM 62.1 °F - 39.9 °F 44% 30.17 in 10.0 mi North - - N/A   Scattered Clouds
2:53 PM 64.0 °F - 41.0 °F 43% 30.15 in 10.0 mi NW 4.6 mph - N/A   Scattered Clouds
3:53 PM 63.0 °F - 39.9 °F 43% 30.14 in 10.0 mi North - - N/A   Clear
4:53 PM 64.0 °F - 41.0 °F 43% 30.14 in 10.0 mi NW 8.1 mph - N/A   Clear
5:53 PM 64.0 °F - 41.0 °F 43% 30.14 in 10.0 mi Calm Calm - N/A   Clear
6:53 PM 62.1 °F - 39.9 °F 44% 30.13 in 10.0 mi North 3.5 mph - N/A   Clear
7:53 PM 57.9 °F - 41.0 °F 53% 30.13 in 10.0 mi North 3.5 mph - N/A   Clear
8:53 PM 52.0 °F - 42.1 °F 69% 30.15 in 10.0 mi ENE 9.2 mph - N/A   Overcast
9:53 PM 48.9 °F - 42.1 °F 77% 30.17 in 10.0 mi ESE 4.6 mph - N/A   Partly Cloudy
10:53 PM 46.9 °F - 41.0 °F 80% 30.18 in 10.0 mi East 9.2 mph - N/A   Clear
11:53 PM 44.1 °F 40.1 °F 39.9 °F 85% 30.18 in 10.0 mi ESE 6.9 mph - N/A   Clear